����������;��������(kWh)
2017-05-22 00:00;79,6
2017-05-22 00:15;79,2
2017-05-22 00:30;79,15
2017-05-22 00:45;85,25
2017-05-22 01:00;87
2017-05-22 01:15;82,1
2017-05-22 01:30;82,65
2017-05-22 01:45;83,2
2017-05-22 02:00;84,75
2017-05-22 02:15;82,95
2017-05-22 02:30;82,75
2017-05-22 02:45;83,2
2017-05-22 03:00;83,05
2017-05-22 03:15;83,8
2017-05-22 03:30;84,95
2017-05-22 03:45;84,2
2017-05-22 04:00;83,15
2017-05-22 04:15;85,95
2017-05-22 04:30;85,75
2017-05-22 04:45;83,75
2017-05-22 05:00;88,3
2017-05-22 05:15;89,25
2017-05-22 05:30;95,75
2017-05-22 05:45;95,55
2017-05-22 06:00;92,45
2017-05-22 06:15;88,55
2017-05-22 06:30;85,2
2017-05-22 06:45;84,65
2017-05-22 07:00;82,15
2017-05-22 07:15;84,55
2017-05-22 07:30;84,2
2017-05-22 07:45;90,35
2017-05-22 08:00;91,15
2017-05-22 08:15;93,4
2017-05-22 08:30;103
2017-05-22 08:45;112,2
2017-05-22 09:00;115,6
2017-05-22 09:15;116,8
2017-05-22 09:30;127,1
2017-05-22 09:45;129,85
2017-05-22 10:00;133,8
2017-05-22 10:15;129,75
2017-05-22 10:30;131,6
2017-05-22 10:45;129
2017-05-22 11:00;136,25
2017-05-22 11:15;138,75
2017-05-22 11:30;141,9
2017-05-22 11:45;136,8
2017-05-22 12:00;135,45
2017-05-22 12:15;137
2017-05-22 12:30;138,15
2017-05-22 12:45;141,7
2017-05-22 13:00;145,2
2017-05-22 13:15;148
2017-05-22 13:30;144,45
2017-05-22 13:45;144,5
2017-05-22 14:00;149
2017-05-22 14:15;145,15
2017-05-22 14:30;148,1
2017-05-22 14:45;148,35
2017-05-22 15:00;144,55
2017-05-22 15:15;142,3
2017-05-22 15:30;135,8
2017-05-22 15:45;142,9
2017-05-22 16:00;135,75
2017-05-22 16:15;132,1
2017-05-22 16:30;133,7
2017-05-22 16:45;126,6
2017-05-22 17:00;128,15
2017-05-22 17:15;127,95
2017-05-22 17:30;125
2017-05-22 17:45;124,8
2017-05-22 18:00;121,7
2017-05-22 18:15;123,05
2017-05-22 18:30;120,3
2017-05-22 18:45;120,15
2017-05-22 19:00;114,35
2017-05-22 19:15;112,8
2017-05-22 19:30;114,7
2017-05-22 19:45;110,55
2017-05-22 20:00;110,85
2017-05-22 20:15;110,7
2017-05-22 20:30;105,8
2017-05-22 20:45;105,15
2017-05-22 21:00;104,25
2017-05-22 21:15;106,2
2017-05-22 21:30;102,7
2017-05-22 21:45;100
2017-05-22 22:00;96,65
2017-05-22 22:15;97,6
2017-05-22 22:30;97,2
2017-05-22 22:45;92,9
2017-05-22 23:00;89
2017-05-22 23:15;89,9
2017-05-22 23:30;85,9
2017-05-22 23:45;87,5
2017-05-23 00:00;87,9
2017-05-23 00:15;86,25
2017-05-23 00:30;84,3
2017-05-23 00:45;83,8
2017-05-23 01:00;82,85
2017-05-23 01:15;85,3
2017-05-23 01:30;84,8
2017-05-23 01:45;82,15
2017-05-23 02:00;82,8
2017-05-23 02:15;83,2
2017-05-23 02:30;82
2017-05-23 02:45;80,6
2017-05-23 03:00;78
2017-05-23 03:15;78,2
2017-05-23 03:30;79,2
2017-05-23 03:45;80,15
2017-05-23 04:00;79,55
2017-05-23 04:15;78,7
2017-05-23 04:30;79,5
2017-05-23 04:45;79,2
2017-05-23 05:00;80,95
2017-05-23 05:15;86,25
2017-05-23 05:30;87,9
2017-05-23 05:45;90,65
2017-05-23 06:00;88,25
2017-05-23 06:15;86,05
2017-05-23 06:30;89,6
2017-05-23 06:45;91,3
2017-05-23 07:00;86,75
2017-05-23 07:15;88,2
2017-05-23 07:30;87,3
2017-05-23 07:45;96,3
2017-05-23 08:00;94,5
2017-05-23 08:15;94,85
2017-05-23 08:30;94,15
2017-05-23 08:45;101,85
2017-05-23 09:00;113,15
2017-05-23 09:15;115,8
2017-05-23 09:30;118,6
2017-05-23 09:45;126,65
2017-05-23 10:00;137,65
2017-05-23 10:15;142,75
2017-05-23 10:30;145
2017-05-23 10:45;151,85
2017-05-23 11:00;155,35
2017-05-23 11:15;153,6
2017-05-23 11:30;155,5
2017-05-23 11:45;150,15
2017-05-23 12:00;118,75
2017-05-23 12:15;120,35
2017-05-23 12:30;153,9
2017-05-23 12:45;161,4
2017-05-23 13:00;154,75
2017-05-23 13:15;161,8
2017-05-23 13:30;162,8
2017-05-23 13:45;160,1
2017-05-23 14:00;162,85
2017-05-23 14:15;159,2
2017-05-23 14:30;169,65
2017-05-23 14:45;161
2017-05-23 15:00;164,4
2017-05-23 15:15;156,85
2017-05-23 15:30;153,1
2017-05-23 15:45;152,35
2017-05-23 16:00;149,7
2017-05-23 16:15;147,65
2017-05-23 16:30;142,65
2017-05-23 16:45;145,05
2017-05-23 17:00;138,2
2017-05-23 17:15;127,95
2017-05-23 17:30;127,25
2017-05-23 17:45;132,7
2017-05-23 18:00;137,35
2017-05-23 18:15;131,35
2017-05-23 18:30;128,1
2017-05-23 18:45;125,05
2017-05-23 19:00;114,25
2017-05-23 19:15;112,7
2017-05-23 19:30;114,4
2017-05-23 19:45;109,4
2017-05-23 20:00;106,1
2017-05-23 20:15;106,45
2017-05-23 20:30;104,45
2017-05-23 20:45;103,65
2017-05-23 21:00;103,8
2017-05-23 21:15;102,25
2017-05-23 21:30;103,1
2017-05-23 21:45;99,7
2017-05-23 22:00;94,65
2017-05-23 22:15;89,95
2017-05-23 22:30;89,65
2017-05-23 22:45;90,25
2017-05-23 23:00;91,2
2017-05-23 23:15;88,85
2017-05-23 23:30;90,45
2017-05-23 23:45;89,3
2017-05-24 00:00;86,55
2017-05-24 00:15;86,6
2017-05-24 00:30;85,7
2017-05-24 00:45;85,1
2017-05-24 01:00;84,85
2017-05-24 01:15;82,35
2017-05-24 01:30;81,35
2017-05-24 01:45;81,85
2017-05-24 02:00;82,5
2017-05-24 02:15;82,75
2017-05-24 02:30;82,75
2017-05-24 02:45;81,9
2017-05-24 03:00;81,25
2017-05-24 03:15;82,7
2017-05-24 03:30;82,05
2017-05-24 03:45;83,4
2017-05-24 04:00;83,75
2017-05-24 04:15;79,2
2017-05-24 04:30;78,25
2017-05-24 04:45;77,85
2017-05-24 05:00;80,8
2017-05-24 05:15;83,75
2017-05-24 05:30;87,35
2017-05-24 05:45;90,2
2017-05-24 06:00;87,5
2017-05-24 06:15;83,2
2017-05-24 06:30;90,4
2017-05-24 06:45;84,05
2017-05-24 07:00;85,95
2017-05-24 07:15;88,6
2017-05-24 07:30;92,55
2017-05-24 07:45;96,05
2017-05-24 08:00;91,3
2017-05-24 08:15;90,1
2017-05-24 08:30;102
2017-05-24 08:45;109
2017-05-24 09:00;114,3
2017-05-24 09:15;114,2
2017-05-24 09:30;117,9
2017-05-24 09:45;116,55
2017-05-24 10:00;116,2
2017-05-24 10:15;190,1
2017-05-24 10:30;177,75
2017-05-24 10:45;143,55
2017-05-24 11:00;170
2017-05-24 11:15;159,55
2017-05-24 11:30;154,5
2017-05-24 11:45;158,2
2017-05-24 12:00;156,45
2017-05-24 12:15;154,6
2017-05-24 12:30;162,85
2017-05-24 12:45;159
2017-05-24 13:00;159,6
2017-05-24 13:15;150,1
2017-05-24 13:30;158,25
2017-05-24 13:45;162,9
2017-05-24 14:00;158,75
2017-05-24 14:15;164,4
2017-05-24 14:30;154,4
2017-05-24 14:45;156,4
2017-05-24 15:00;154,3
2017-05-24 15:15;147,6
2017-05-24 15:30;150
2017-05-24 15:45;146,4
2017-05-24 16:00;142,6
2017-05-24 16:15;145,85
2017-05-24 16:30;138
2017-05-24 16:45;136,95
2017-05-24 17:00;136,75
2017-05-24 17:15;126,85
2017-05-24 17:30;121,85
2017-05-24 17:45;133,15
2017-05-24 18:00;123,7
2017-05-24 18:15;117,75
2017-05-24 18:30;119,6
2017-05-24 18:45;120,65
2017-05-24 19:00;107,6
2017-05-24 19:15;103,8
2017-05-24 19:30;106,45
2017-05-24 19:45;106,6
2017-05-24 20:00;103,85
2017-05-24 20:15;103,35
2017-05-24 20:30;101,25
2017-05-24 20:45;103,8
2017-05-24 21:00;110,1
2017-05-24 21:15;101
2017-05-24 21:30;95,7
2017-05-24 21:45;96,9
2017-05-24 22:00;90,25
2017-05-24 22:15;87,95
2017-05-24 22:30;87,2
2017-05-24 22:45;86,2
2017-05-24 23:00;86,15
2017-05-24 23:15;87,35
2017-05-24 23:30;84,3
2017-05-24 23:45;83
2017-05-25 00:00;85,2
2017-05-25 00:15;82,55
2017-05-25 00:30;81,7
2017-05-25 00:45;84,95
2017-05-25 01:00;81,55
2017-05-25 01:15;80,6
2017-05-25 01:30;81,65
2017-05-25 01:45;78,6
2017-05-25 02:00;78,4
2017-05-25 02:15;80,1
2017-05-25 02:30;78,2
2017-05-25 02:45;77,45
2017-05-25 03:00;78,2
2017-05-25 03:15;79,95
2017-05-25 03:30;79,7
2017-05-25 03:45;78,7
2017-05-25 04:00;78,05
2017-05-25 04:15;77,75
2017-05-25 04:30;78,2
2017-05-25 04:45;79,3
2017-05-25 05:00;79,65
2017-05-25 05:15;83,55
2017-05-25 05:30;90,3
2017-05-25 05:45;91,95
2017-05-25 06:00;86,3
2017-05-25 06:15;86,1
2017-05-25 06:30;93,4
2017-05-25 06:45;85,8
2017-05-25 07:00;84,55
2017-05-25 07:15;90,15
2017-05-25 07:30;91,65
2017-05-25 07:45;102,1
2017-05-25 08:00;105,85
2017-05-25 08:15;105,25
2017-05-25 08:30;110,8
2017-05-25 08:45;114,1
2017-05-25 09:00;121,65
2017-05-25 09:15;128,75
2017-05-25 09:30;133,75
2017-05-25 09:45;126,8
2017-05-25 10:00;127,35
2017-05-25 10:15;140,2
2017-05-25 10:30;141,95
2017-05-25 10:45;143,45
2017-05-25 11:00;156,45
2017-05-25 11:15;152,5
2017-05-25 11:30;151,45
2017-05-25 11:45;163,4
2017-05-25 12:00;167,8
2017-05-25 12:15;160,6
2017-05-25 12:30;151,75
2017-05-25 12:45;157,75
2017-05-25 13:00;157,3
2017-05-25 13:15;160,5
2017-05-25 13:30;162,55
2017-05-25 13:45;163,8
2017-05-25 14:00;160,5
2017-05-25 14:15;159,95
2017-05-25 14:30;160,95
2017-05-25 14:45;159,9
2017-05-25 15:00;158,15
2017-05-25 15:15;158,35
2017-05-25 15:30;158,1
2017-05-25 15:45;150,9
2017-05-25 16:00;152,55
2017-05-25 16:15;147,35
2017-05-25 16:30;146,85
2017-05-25 16:45;145,85
2017-05-25 17:00;145,8
2017-05-25 17:15;139,65
2017-05-25 17:30;137,4
2017-05-25 17:45;132,5
2017-05-25 18:00;129,6
2017-05-25 18:15;128,2
2017-05-25 18:30;123,85
2017-05-25 18:45;120,35
2017-05-25 19:00;123,65
2017-05-25 19:15;110,35
2017-05-25 19:30;111,3
2017-05-25 19:45;114,95
2017-05-25 20:00;110,15
2017-05-25 20:15;104,15
2017-05-25 20:30;109,85
2017-05-25 20:45;110,9
2017-05-25 21:00;104,8
2017-05-25 21:15;103
2017-05-25 21:30;105,15
2017-05-25 21:45;100,95
2017-05-25 22:00;95,9
2017-05-25 22:15;92,35
2017-05-25 22:30;88,7
2017-05-25 22:45;87
2017-05-25 23:00;87,45
2017-05-25 23:15;87,1
2017-05-25 23:30;84,65
2017-05-25 23:45;93
2017-05-26 00:00;86,3
2017-05-26 00:15;82,25
2017-05-26 00:30;83,2
2017-05-26 00:45;81,4
2017-05-26 01:00;80,4
2017-05-26 01:15;80,7
2017-05-26 01:30;81,1
2017-05-26 01:45;81,5
2017-05-26 02:00;82,1
2017-05-26 02:15;80,45
2017-05-26 02:30;81,05
2017-05-26 02:45;82,8
2017-05-26 03:00;80,7
2017-05-26 03:15;81,05
2017-05-26 03:30;82,35
2017-05-26 03:45;79,9
2017-05-26 04:00;81,05
2017-05-26 04:15;81,55
2017-05-26 04:30;79,45
2017-05-26 04:45;80,45
2017-05-26 05:00;84
2017-05-26 05:15;84,4
2017-05-26 05:30;90,1
2017-05-26 05:45;92,7
2017-05-26 06:00;89,3
2017-05-26 06:15;82,4
2017-05-26 06:30;80,45
2017-05-26 06:45;91,4
2017-05-26 07:00;84,65
2017-05-26 07:15;82,7
2017-05-26 07:30;84,3
2017-05-26 07:45;100,35
2017-05-26 08:00;105,45
2017-05-26 08:15;103,1
2017-05-26 08:30;110,35
2017-05-26 08:45;112,25
2017-05-26 09:00;113,5
2017-05-26 09:15;116,9
2017-05-26 09:30;125,9
2017-05-26 09:45;125,95
2017-05-26 10:00;126,5
2017-05-26 10:15;139,5
2017-05-26 10:30;141,25
2017-05-26 10:45;145
2017-05-26 11:00;162,05
2017-05-26 11:15;153,4
2017-05-26 11:30;155,15
2017-05-26 11:45;155,55
2017-05-26 12:00;153,1
2017-05-26 12:15;154,05
2017-05-26 12:30;155,45
2017-05-26 12:45;158,9
2017-05-26 13:00;153,6
2017-05-26 13:15;159,7
2017-05-26 13:30;161,7
2017-05-26 13:45;164,35
2017-05-26 14:00;160,05
2017-05-26 14:15;160,3
2017-05-26 14:30;158,4
2017-05-26 14:45;161,3
2017-05-26 15:00;154,4
2017-05-26 15:15;151,15
2017-05-26 15:30;146,9
2017-05-26 15:45;144,85
2017-05-26 16:00;143,65
2017-05-26 16:15;136,3
2017-05-26 16:30;141
2017-05-26 16:45;137,85
2017-05-26 17:00;137,1
2017-05-26 17:15;140,25
2017-05-26 17:30;139,65
2017-05-26 17:45;133,85
2017-05-26 18:00;130,3
2017-05-26 18:15;130,9
2017-05-26 18:30;123,8
2017-05-26 18:45;120,8
2017-05-26 19:00;116,2
2017-05-26 19:15;113,25
2017-05-26 19:30;109,95
2017-05-26 19:45;110,55
2017-05-26 20:00;105,15
2017-05-26 20:15;100,75
2017-05-26 20:30;107,75
2017-05-26 20:45;108,85
2017-05-26 21:00;108,05
2017-05-26 21:15;97
2017-05-26 21:30;96,65
2017-05-26 21:45;97,5
2017-05-26 22:00;90,25
2017-05-26 22:15;89,45
2017-05-26 22:30;85,35
2017-05-26 22:45;85,65
2017-05-26 23:00;85,9
2017-05-26 23:15;86,15
2017-05-26 23:30;81,8
2017-05-26 23:45;83,1
2017-05-27 00:00;84,35
2017-05-27 00:15;86,55
2017-05-27 00:30;86,85
2017-05-27 00:45;83,7
2017-05-27 01:00;80,85
2017-05-27 01:15;78,9
2017-05-27 01:30;79,1
2017-05-27 01:45;75,9
2017-05-27 02:00;79,15
2017-05-27 02:15;81,45
2017-05-27 02:30;79,7
2017-05-27 02:45;81,35
2017-05-27 03:00;79,65
2017-05-27 03:15;79,85
2017-05-27 03:30;80,65
2017-05-27 03:45;79,6
2017-05-27 04:00;78,65
2017-05-27 04:15;81,3
2017-05-27 04:30;78,45
2017-05-27 04:45;79,4
2017-05-27 05:00;79,6
2017-05-27 05:15;79,1
2017-05-27 05:30;82,6
2017-05-27 05:45;84,2
2017-05-27 06:00;85,25
2017-05-27 06:15;84,15
2017-05-27 06:30;78,7
2017-05-27 06:45;75,2
2017-05-27 07:00;76,25
2017-05-27 07:15;75,8
2017-05-27 07:30;75,45
2017-05-27 07:45;76,9
2017-05-27 08:00;74,5
2017-05-27 08:15;71,4
2017-05-27 08:30;74,15
2017-05-27 08:45;74,7
2017-05-27 09:00;78,7
2017-05-27 09:15;76
2017-05-27 09:30;74,1
2017-05-27 09:45;72,45
2017-05-27 10:00;74,35
2017-05-27 10:15;77,7
2017-05-27 10:30;78,95
2017-05-27 10:45;82,6
2017-05-27 11:00;88,15
2017-05-27 11:15;77,65
2017-05-27 11:30;80,45
2017-05-27 11:45;78,6
2017-05-27 12:00;78,4
2017-05-27 12:15;83,3
2017-05-27 12:30;81,6
2017-05-27 12:45;81,95
2017-05-27 13:00;87,15
2017-05-27 13:15;87,05
2017-05-27 13:30;88,2
2017-05-27 13:45;87,65
2017-05-27 14:00;86,25
2017-05-27 14:15;87,35
2017-05-27 14:30;88,35
2017-05-27 14:45;89,6
2017-05-27 15:00;89,55
2017-05-27 15:15;85,9
2017-05-27 15:30;89,35
2017-05-27 15:45;85,8
2017-05-27 16:00;84,85
2017-05-27 16:15;83,35
2017-05-27 16:30;86,65
2017-05-27 16:45;93,2
2017-05-27 17:00;86,45
2017-05-27 17:15;90,25
2017-05-27 17:30;92,85
2017-05-27 17:45;94,85
2017-05-27 18:00;92,1
2017-05-27 18:15;87,65
2017-05-27 18:30;87,15
2017-05-27 18:45;90,65
2017-05-27 19:00;90,65
2017-05-27 19:15;91,25
2017-05-27 19:30;93,35
2017-05-27 19:45;91,75
2017-05-27 20:00;88,4
2017-05-27 20:15;87
2017-05-27 20:30;87,8
2017-05-27 20:45;89,85
2017-05-27 21:00;89,7
2017-05-27 21:15;88,75
2017-05-27 21:30;88,4
2017-05-27 21:45;89,05
2017-05-27 22:00;86,45
2017-05-27 22:15;82,25
2017-05-27 22:30;84,2
2017-05-27 22:45;82,55
2017-05-27 23:00;84,85
2017-05-27 23:15;81,05
2017-05-27 23:30;80,2
2017-05-27 23:45;80,3
2017-05-28 00:00;81
2017-05-28 00:15;79,1
2017-05-28 00:30;77,15
2017-05-28 00:45;77,7
2017-05-28 01:00;79,15
2017-05-28 01:15;76,05
2017-05-28 01:30;77,3
2017-05-28 01:45;77,5
2017-05-28 02:00;76,4
2017-05-28 02:15;79,1
2017-05-28 02:30;77,55
2017-05-28 02:45;75,55
2017-05-28 03:00;78,3
2017-05-28 03:15;77,7
2017-05-28 03:30;75,9
2017-05-28 03:45;77,35
2017-05-28 04:00;75,35
2017-05-28 04:15;74,05
2017-05-28 04:30;77,05
2017-05-28 04:45;75,75
2017-05-28 05:00;75,8
2017-05-28 05:15;80,45
2017-05-28 05:30;79,4
2017-05-28 05:45;85,9
2017-05-28 06:00;84,3
2017-05-28 06:15;81,5
2017-05-28 06:30;80,5
2017-05-28 06:45;75,85
2017-05-28 07:00;71,7
2017-05-28 07:15;71,95
2017-05-28 07:30;70,3
2017-05-28 07:45;71,1
2017-05-28 08:00;74
2017-05-28 08:15;73,75
2017-05-28 08:30;74,2
2017-05-28 08:45;74,65
2017-05-28 09:00;74,5
2017-05-28 09:15;75,3
2017-05-28 09:30;74,85
2017-05-28 09:45;76,4
2017-05-28 10:00;75,45
2017-05-28 10:15;78,15
2017-05-28 10:30;79,6
2017-05-28 10:45;78,6
2017-05-28 11:00;88,2
2017-05-28 11:15;79,3
2017-05-28 11:30;79,85
2017-05-28 11:45;83,55
2017-05-28 12:00;85,35
2017-05-28 12:15;89,15
2017-05-28 12:30;85,7
2017-05-28 12:45;83,5
2017-05-28 13:00;85,3
2017-05-28 13:15;85,2
2017-05-28 13:30;82,2
2017-05-28 13:45;83,2
2017-05-28 14:00;84,85
2017-05-28 14:15;86,3
2017-05-28 14:30;83,75
2017-05-28 14:45;82,7
2017-05-28 15:00;88,9
2017-05-28 15:15;86,8
2017-05-28 15:30;80,6
2017-05-28 15:45;84,85
2017-05-28 16:00;84,45
2017-05-28 16:15;79,2
2017-05-28 16:30;80,6
2017-05-28 16:45;79,65
2017-05-28 17:00;82,25
2017-05-28 17:15;80,95
2017-05-28 17:30;79,15
2017-05-28 17:45;79,35
2017-05-28 18:00;80,35
2017-05-28 18:15;81,35
2017-05-28 18:30;81,65
2017-05-28 18:45;78,8
2017-05-28 19:00;76,85
2017-05-28 19:15;76,65
2017-05-28 19:30;80
2017-05-28 19:45;79,2
2017-05-28 20:00;80,8
2017-05-28 20:15;80,35
2017-05-28 20:30;83,95
2017-05-28 20:45;81,55
2017-05-28 21:00;89,25
2017-05-28 21:15;88,35
2017-05-28 21:30;88,35
2017-05-28 21:45;86,8
2017-05-28 22:00;82
2017-05-28 22:15;82,65
2017-05-28 22:30;84,2
2017-05-28 22:45;82,4
2017-05-28 23:00;82,65
2017-05-28 23:15;81,75
2017-05-28 23:30;80,55
2017-05-28 23:45;80,2

